This demonstration page uses our WeatherBlox Daily Observations layout. Learn more.

Left ArrowRight Arrow

34.02893, -84.19858

Hourly Observations for February 10, 2021

Temp ( °F °C ) Dew Point ( °F °C ) Humidity (%) Winds ( mph kmh ) Pressure ( in mb ) Visibility ( mi km ) Precip ( " mm )
12:07 am 00:07 Clear with Mist and Fog 45 7.2 45 7.2 100 100 SE 3 6 30.17 1022 3 5 0.00 0.00
12:26 am 00:26 Clear with Mist and Fog 42 5.6 42 5.6 100 100 Calm 30.18 1022 1 1 0.00 0.00
12:41 am 00:41 Clear with Mist and Fog 43 6.1 43 6.1 100 100 Calm 30.18 1022 1 2 0.00 0.00
12:46 am 00:46 Clear with Mist and Fog 45 7.2 44 6.7 97 97 Calm 30.17 1022 3 5 0.00 0.00
12:53 am 00:53 Clear with Mist and Fog 45 7.2 44 6.7 97 97 Calm 30.15 1021 5 8 0.00 0.00
1:00 am 01:00 Clear with Mist and Fog 43 6.1 43 6.1 100 100 Calm 30.17 1022 1 1 0.00 0.00
1:10 am 01:10 Clear with Mist and Fog 44 6.7 44 6.7 100 100 Calm 30.16 1021 2 3 0.00 0.00
1:20 am 01:20 Clear with Mist and Fog 43 6.1 43 6.1 100 100 Calm 30.17 1022 3 5 0.00 0.00
1:26 am 01:26 Clear with Mist and Fog 44 6.7 43 6.1 96 96 Calm 30.16 1021 2 3 0.00 0.00
1:35 am 01:35 Clear with Mist and Fog 44 6.7 43 6.1 96 96 Calm 30.16 1021 1 1 0.00 0.00
1:42 am 01:42 Clear with Mist and Fog 44 6.7 44 6.7 100 100 Calm 30.16 1021 2 3 0.00 0.00
1:53 am 01:53 Clear with Mist and Fog 44 6.7 43 6.1 96 96 Calm 30.15 1021 1 2 0.00 0.00
2:08 am 02:08 Clear with Mist and Fog 44 6.7 43 6.1 96 96 Calm 30.16 1021 3 5 0.00 0.00
2:21 am 02:21 Clear with Mist and Fog 43 6.1 43 6.1 100 100 Calm 30.17 1022 1 2 0.00 0.00
2:27 am 02:27 Clear with Fog 40 4.4 40 4.4 100 100 Calm 30.17 1022 1 1 0.00 0.00
2:45 am 02:45 Clear with Mist and Fog 41 5 41 5 100 100 Calm 30.17 1022 1 2 0.00 0.00
2:53 am 02:53 Clear with Mist and Fog 41 5 41 5 100 100 Calm 30.14 1021 2 2 0.00 0.00
3:04 am 03:04 Clear with Mist and Fog 41 5 41 5 100 100 Calm 30.17 1022 1 1 0.00 0.00
3:11 am 03:11 Clear with Mist and Fog 42 5.6 42 5.6 100 100 Calm 30.17 1022 2 3 0.00 0.00
3:19 am 03:19 Clear with Mist and Fog 42 5.6 42 5.6 100 100 Calm 30.17 1022 4 6 0.00 0.00
3:28 am 03:28 Clear with Mist and Fog 41 5 41 5 100 100 Calm 30.17 1022 2 2 0.00 0.00
3:37 am 03:37 Clear with Mist and Fog 40 4.4 40 4.4 100 100 Calm 30.17 1022 1 1 0.00 0.00
3:42 am 03:42 Clear with Mist and Fog 40 4.4 40 4.4 100 100 Calm 30.17 1022 2 3 0.00 0.00
3:53 am 03:53 Clear with Mist and Fog 41 5 41 5 100 100 Calm 30.15 1021 3 4 0.00 0.00
4:00 am 04:00 Clear with Mist and Fog 39 3.9 39 3.9 100 100 NNE 3 6 30.18 1022 1 1 0.00 0.00
4:13 am 04:13 Clear with Mist and Fog 40 4.4 40 4.4 100 100 Calm 30.17 1022 2 3 0.00 0.00
4:28 am 04:28 Clear with Mist and Fog 40 4.4 40 4.4 100 100 Calm 30.17 1022 1 2 0.00 0.00
4:40 am 04:40 Clear with Mist and Fog 38 3.3 38 3.3 100 100 Calm 30.19 1022 1 1 0.00 0.00
4:48 am 04:48 Clear with Mist and Fog 39 4 37 3 93 93 Calm 30.18 1022 2 3 0.00 0.00
4:53 am 04:53 Clear with Mist and Fog 40 4.4 40 4.4 100 100 Calm 30.15 1021 2 3 0.00 0.00
4:58 am 04:58 Clear with Mist and Fog 39 3.9 39 3.9 100 100 Calm 30.19 1022 1 1 0.00 0.00
5:05 am 05:05 Clear with Fog 38 3.3 38 3.3 100 100 Calm 30.19 1022 1 1 0.00 0.00
5:12 am 05:12 Clear with Mist and Fog 39 3.9 39 3.9 100 100 Calm 30.19 1022 1 2 0.00 0.00
5:19 am 05:19 Clear with Mist and Fog 40 4.4 40 4.4 100 100 Calm 30.18 1022 3 5 0.00 0.00
5:29 am 05:29 Clear with Mist and Fog 40 4.4 39 3.9 97 97 Calm 30.18 1022 2 3 0.00 0.00
5:53 am 05:53 Clear with Mist and Fog 40 4.4 39 3.9 97 97 Calm 30.17 1022 1 1 0.00 0.00
6:11 am 06:11 Clear with Fog 40 4.4 39 3.9 97 97 Calm 30.19 1022 1 1 0.00 0.00
6:19 am 06:19 Clear with Mist and Fog 39 3.9 38 3.3 96 96 Calm 30.20 1023 1 1 0.00 0.00
6:27 am 06:27 Clear with Fog 38 3.3 38 3.3 100 100 Calm 30.20 1023 1 1 0.00 0.00
6:32 am 06:32 Clear with Mist and Fog 39 3.9 38 3.3 96 96 Calm 30.20 1023 1 2 0.00 0.00
6:53 am 06:53 Clear with Mist and Fog 39 3.9 38 3.3 96 96 Calm 30.18 1022 3 5 0.00 0.00
7:24 am 07:24 Clear with Mist and Fog 39 3.9 38 3.3 96 96 Calm 30.21 1023 2 3 0.00 0.00
7:38 am 07:38 Sunny with Mist and Fog 40 4.4 39 3.9 97 97 Calm 30.21 1023 2 3 0.00 0.00
7:49 am 07:49 Sunny with Mist and Fog 39 4 39 4 100 100 Calm 30.21 1023 2 2 0.00 0.00
7:53 am 07:53 Sunny with Mist and Fog 40 4.4 40 4.4 100 100 Calm 30.20 1023 2 2 0.00 0.00
8:05 am 08:05 Sunny with Mist and Fog 39 3.9 39 3.9 100 100 N 3 6 30.23 1024 3 5 0.00 0.00
8:53 am 08:53 Sunny with Mist and Fog 49 9.4 48 8.9 97 97 Calm 30.20 1023 6 10 0.00 0.00
9:53 am 09:53 Sunny 57 13.9 48 8.9 72 72 VRB 3 6 30.21 1023 10 16 0.00 0.00
10:53 am 10:53 Sunny 62 16.7 47 8.3 58 58 Calm 30.20 1023 10 16 0.00 0.00
11:53 am 11:53 Sunny 64 17.8 49 9.4 58 58 SSE 5 7 30.18 1022 10 16 0.00 0.00
12:53 pm 12:53 Mostly Sunny 67 19.4 49 9.4 53 53 VRB 3 6 30.14 1021 10 16 0.00 0.00
1:53 pm 13:53 Partly Cloudy 67 19.4 49 9.4 53 53 S 9 15 30.11 1020 10 16 0.00 0.00
2:53 pm 14:53 Partly Cloudy 67 19.4 47 8.3 49 49 SW 5 7 30.09 1019 10 16 0.00 0.00
3:53 pm 15:53 Mostly Cloudy 68 20 47 8.3 47 47 Calm 30.09 1019 10 16 0.00 0.00
4:53 pm 16:53 Mostly Cloudy 67 19.4 49 9.4 53 53 S 7 11 30.09 1019 10 16 0.00 0.00
6:53 pm 18:53 Clear 60 15.6 50 10 70 70 SE 3 6 30.10 1019 10 16 0.00 0.00
7:53 pm 19:53 Cloudy 59 15 50 10 72 72 Calm 30.11 1020 10 16 0.00 0.00
8:53 pm 20:53 Cloudy 59 15 51 10.6 75 75 Calm 30.12 1020 10 16 0.00 0.00
9:53 pm 21:53 Partly Cloudy 56 13.3 51 10.6 84 84 SW 6 9 30.12 1020 10 16 0.00 0.00
10:53 pm 22:53 Clear 54 12.2 51 10.6 90 90 SE 5 7 30.10 1019 10 16 0.00 0.00
11:53 pm 23:53 Clear 53 11.7 51 10.6 93 93 SSE 5 7 30.06 1018 9 14 0.00 0.00

Powered by AerisWeather